Regional Weather Roundup
Issued by NWS Sioux Falls, SD

Home | Current Version | Previous Version | Graphics & Text | Print | Product List | Glossary Off
Versions: 1 2 3 4 5 6 7 8 9 10 11 12 13 14 15 16 17 18 19 20 21 22 23 24 25 26 27 28 29 30 31 32 33 34 35 36 37 38 39 40 41 42 43 44 45 46 47 48 49 50

649
ASUS43 KFSD 210602
RWRFSD

WEATHER ROUNDUP FOR SE SOUTH DAKOTA/SW MINNESOTA/NW IOWA
NATIONAL WEATHER SERVICE SIOUX FALLS SD
1200 AM CST TUE NOV 21 2017

NOTE: "FAIR" INDICATES FEW OR NO CLOUDS BELOW 12,000 FEET WITH NO
SIGNIFICANT WEATHER AND OR OBSTRUCTIONS TO VISIBILITY.


SDZ038>040-050-052>070-210700-
SOUTHEAST SOUTH DAKOTA

CITY           SKY/WX    TMP DP  RH WIND       PRES   REMARKS
BROOKINGS      CLOUDY    35  20  54 MISG        N/A
CHAMBERLAIN    CLOUDY    43  28  55 N10       29.83R
6HR MIN TEMP:  43; 6HR MAX TEMP:  55;

HURON          CLOUDY    38  23  55 N13       29.77R
6HR MIN TEMP:  34; 6HR MAX TEMP:  44;

MADISON        FAIR      32  23  69 NW8       29.75R WCI  25
MITCHELL       CLOUDY    41  24  51 N15       29.80R
6HR MIN TEMP:  39; 6HR MAX TEMP:  51;

SIOUX FALLS    CLOUDY    40  24  53 N17G24    29.73R
6HR MIN TEMP:  37; 6HR MAX TEMP:  46;

WINNER         CLOUDY    44  27  51 N15       29.82R
YANKTON        CLOUDY    43  25  49 NW16      29.75R
$$

MNZ071-072-080-081-089-090-097-098-210700-
SOUTHWEST MINNESOTA

CITY           SKY/WX    TMP DP  RH WIND       PRES   REMARKS
FAIRMONT       CLEAR     41  27  57 NW17G28   29.65R
JACKSON        CLEAR     37  27  65 NW15G22   29.67R
MARSHALL       CLOUDY    37  18  46 NW15      29.70R
6HR MIN TEMP:  35; 6HR MAX TEMP:  45;

MONTEVIDEO     CLOUDY    36  16  44 N21G28    29.67R
PIPESTONE      PTCLDY    36  21  55 N13G22    29.71R
REDWOOD FALLS  PTCLDY    37  20  50 W15       29.66R
WINDOM         CLEAR     37  19  48 NW17G23   29.67R
WORTHINGTON    PTCLDY    38  24  57 NW17      29.69R
$$

IAZ001>003-012>014-020>022-031-032-NEZ013-014-SDZ071-210700-
NORTHWEST IOWA

CITY           SKY/WX    TMP DP  RH WIND       PRES   REMARKS
CHEROKEE       PTCLDY    43  26  52 NW8       29.69R
DENISON        CLOUDY    41  28  60 CALM      29.70R
ESTHERVILLE    CLEAR     36  26  67 NW14      29.65R
LE MARS        PTCLDY    43  27  52 NW6       29.71R
ORANGE CITY    CLOUDY    43  28  56 NW7       29.69R
SHELDON        CLOUDY    36  25  64 NW10      29.68R
SIOUX CITY     CLOUDY    35  28  75 NW9       29.71R WCI  28
6HR MIN TEMP:  33; 6HR MAX TEMP:  42;

SPENCER        PTCLDY    37  25  61 N8        29.67R
6HR MIN TEMP:  35; 6HR MAX TEMP:  46;

STORM LAKE     PTCLDY    39  27  60 NW10      29.68R
$$

ABBREVIATIONS USED IN REMARKS
   TC - TEMPERATURE IN CELSIUS
  WCI - WIND CHILL INDEX
   HX - HEAT INDEX
  VSB - VISIBILITY





USA.gov is the U.S. government's official web portal to all federal, state and local government web resources and services.